{"data":{"norad_id":40972,"epoch":"2026-05-25T04:38:28.653216Z","epoch_age_seconds":61420,"freshness":"FRESH","line1":"1 40972U 15058J   26145.19338719  .00087484  00000+0  12064-2 0  9995","line2":"2 40972  64.7430 173.9847 0033699  27.3276 332.9631 15.56043275115444","mean_motion":15.56043275,"eccentricity":0.0033699,"inclination_deg":64.743,"raan_deg":173.9847,"arg_perigee_deg":27.3276,"mean_anomaly_deg":332.9631,"bstar":0.0012064,"rev_number":11544,"period_min":92.542413385,"perigee_km":376.282968318,"apogee_km":421.96033618244,"semimajor_km":6777.2586522502,"source":"CELESTRAK","updated_at":"2026-05-25T13:38:25.526566Z"}}